GFSCGP_sfc_dewp_117.txt.gz
Dewpoint
30 30 24 25 27 27 26 25 26 28 31 34 32 32 32 35 35 37 38 38 34 31 30 29 31 53 60 65 66 63 65 64 64 63 66 66 65 65 61 56 52 46 42 39
26 24 24 26 26 25 23 24 26 29 31 32 30 31 32 33 36 38 36 37 39 39 37 34 33 41 54 62 65 66 66 64 63 65 65 65 65 65 60 58 55 48 43 41
22 23 22 21 24 21 24 25 27 29 31 32 29 30 30 34 37 39 40 42 40 41 39 38 38 40 50 60 63 64 66 64 64 65 65 63 61 61 60 58 56 49 43 42
20 21 21 21 20 23 25 29 35 34 30 24 29 25 30 33 38 39 41 43 45 45 45 42 41 43 46 55 63 65 65 64 64 65 63 61 60 58 60 57 54 52 47 44
20 19 22 22 20 25 25 31 36 34 31 29 27 27 27 33 37 39 41 45 45 46 50 49 42 42 44 52 57 64 66 65 65 64 63 63 61 59 56 54 53 53 52 51
18 22 24 24 24 26 29 29 35 34 31 26 26 29 26 34 38 40 45 46 46 47 50 54 48 44 46 54 61 65 63 63 63 63 63 60 56 54 53 53 53 54 53 54
16 18 20 25 25 27 29 31 36 29 30 23 28 29 33 37 39 45 46 45 46 48 51 54 49 49 50 59 63 63 63 61 63 61 59 57 55 55 54 53 52 52 53 54
16 15 15 19 26 25 30 32 34 30 26 31 30 31 33 38 40 44 47 45 46 48 50 53 59 59 59 61 62 60 60 59 59 58 57 57 55 54 53 54 54 54 54 55
17 16 18 21 27 28 26 25 34 35 35 33 29 26 36 37 36 38 43 45 45 47 49 51 54 59 60 60 60 59 59 58 58 58 58 58 58 57 56 54 53 55 55 55
21 15 15 14 27 29 26 29 29 33 33 25 17 16 20 30 35 37 42 43 44 47 48 50 51 52 54 57 59 59 59 58 58 58 59 58 58 58 57 57 56 55 54 53
18 17 16 18 18 19 23 22 22 31 28 25 19 19 25 28 35 36 41 41 42 46 46 47 48 50 51 53 55 55 52 56 53 51 53 51 49 50 50 49 51 53 52 52
20 21 14 10 18 22 23 19 19 20 20 25 26 23 26 30 35 37 39 39 41 43 47 47 46 48 48 48 47 48 47 45 44 42 39 39 39 42 40 38 40 44 47 49
24 20 15 14 22 20 14 12 15 14 27 23 19 17 27 30 35 38 39 39 39 40 40 41 45 43 42 42 43 42 41 42 38 37 36 36 37 36 35 34 35 36 36 38
29 25 21 15 15 15 14 13 14 12 20 15 13 7 23 28 34 38 39 39 38 38 39 40 38 37 36 36 35 36 36 36 35 33 33 33 32 32 32 31 31 30 30 30
26 24 18 17 13 12 13 13 11 10 17 19 14 13 14 27 32 38 39 39 40 38 37 37 36 34 33 32 32 32 32 32 32 31 31 31 31 31 31 31 30 30 30 29
20 18 14 18 16 16 19 19 20 19 21 21 21 17 16 29 32 35 38 38 38 38 36 36 35 34 33 32 31 31 30 30 30 30 30 32 31 31 31 30 30 30 30 29
20 19 20 16 16 17 18 20 20 19 23 22 12 21 27 30 31 32 37 38 37 36 36 35 34 33 32 30 30 29 29 29 28 29 29 30 30 30 29 29 30 31 30 29
20 21 21 18 20 19 22 22 23 23 20 20 18 23 28 30 31 32 35 38 37 36 35 34 33 32 31 30 29 29 28 27 28 28 28 28 28 28 28 29 30 29 30 31
21 21 20 21 21 19 20 22 23 21 19 21 20 21 26 31 32 32 33 34 35 35 34 33 32 32 31 30 29 29 28 28 27 27 27 27 27 28 30 31 32 31 31 31
21 20 19 21 24 21 22 23 22 21 20 22 22 24 27 32 28 26 32 33 34 33 33 32 32 31 30 30 29 30 29 28 27 28 27 27 28 29 31 32 33 32 30 29
22 22 21 22 25 24 23 22 22 18 24 22 24 25 28 30 28 33 32 33 33 33 33 33 32 31 30 30 30 29 29 28 29 28 28 29 30 30 31 32 30 29 26 26
23 25 23 22 23 24 27 24 20 28 29 27 27 27 29 30 33 33 33 35 35 35 33 33 32 31 30 30 29 29 30 30 30 29 28 28 29 27 27 29 27 24 25 24
23 23 24 24 26 31 29 30 27 29 29 29 29 30 30 31 32 32 34 35 35 35 33 32 32 32 31 30 29 29 32 31 29 28 29 28 27 25 24 21 22 23 24 25
25 26 28 27 25 28 30 29 30 30 29 30 32 31 32 30 31 32 33 34 35 35 34 32 32 31 30 30 30 31 31 30 28 27 27 27 25 21 19 22 23 24 24 24
24 26 25 25 26 29 30 30 31 33 33 31 31 33 34 33 32 31 32 33 34 35 35 33 32 31 31 31 31 31 30 29 27 26 25 25 23 19 20 22 24 24 23 27
28 26 23 21 23 25 25 30 33 33 32 33 33 32 34 34 33 33 33 34 34 35 34 33 33 32 31 31 31 31 31 29 26 24 24 22 20 20 21 21 22 27 26 27

GFSCGP_sfc_dewp_123.txt.gz
Dewpoint
37 28 25 24 26 25 24 24 23 28 34 33 32 33 37 39 39 39 40 41 42 43 45 46 47 49 64 64 63 64 63 64 63 64 65 64 64 64 64 54 54 49 45 42
23 24 22 23 24 26 24 26 27 34 36 32 31 34 36 39 39 40 40 42 45 45 45 46 47 49 46 62 63 64 63 64 63 62 61 64 64 63 63 55 50 48 42 41
20 25 25 24 23 23 24 27 28 33 36 34 31 32 36 38 40 41 41 44 46 45 45 46 48 50 52 59 61 62 62 62 62 61 62 63 62 61 58 51 51 48 42 44
23 23 24 24 24 24 23 29 30 32 33 28 29 25 33 34 36 39 43 45 45 46 47 47 49 50 51 55 61 61 60 61 61 61 62 63 61 59 57 55 52 52 47 45
18 24 25 25 24 25 25 30 30 32 32 32 28 27 32 35 36 38 44 45 45 47 48 49 50 51 53 55 59 60 60 60 60 58 57 61 59 56 55 53 52 52 52 51
22 25 26 24 24 27 29 31 36 35 33 29 27 29 29 35 37 41 45 45 46 48 50 51 53 55 56 61 62 61 60 58 58 58 58 58 57 57 55 54 53 53 53 52
24 23 27 28 26 29 28 30 24 23 24 25 32 30 32 36 41 44 45 45 47 48 49 51 55 55 59 58 59 60 61 59 58 58 57 59 59 58 57 56 55 52 51 52
20 18 22 20 28 26 26 31 24 11 21 25 33 26 33 38 45 46 45 46 47 48 49 51 54 57 57 59 59 59 58 57 57 58 57 57 55 55 55 54 54 53 51 52
20 22 22 19 23 27 25 25 33 30 32 28 30 31 36 37 41 42 43 46 46 47 48 50 51 54 58 58 58 58 57 57 56 56 56 55 55 54 54 54 54 53 54 51
22 15 19 24 26 31 26 30 26 32 17 20 23 22 23 35 38 41 42 44 46 47 48 49 50 52 54 54 55 56 56 55 55 54 55 55 55 55 54 54 54 54 55 54
21 17 18 20 22 23 27 25 24 26 29 23 22 22 28 35 40 40 42 43 45 46 47 48 48 50 51 52 51 51 52 52 51 50 50 51 51 52 52 52 53 52 52 51
23 22 20 18 23 23 22 19 17 22 20 23 23 24 35 37 39 40 42 40 44 47 46 46 45 47 46 48 48 45 43 42 45 45 42 41 43 45 47 48 50 50 50 49
25 23 19 16 23 22 19 21 14 15 21 24 18 19 35 38 39 40 41 40 42 43 44 43 40 42 42 40 40 40 40 38 37 36 36 35 36 36 37 39 48 49 49 49
33 25 22 19 21 21 16 16 14 13 13 19 16 22 30 37 39 40 40 39 41 37 38 40 38 39 42 44 41 38 34 33 33 32 32 32 31 31 31 31 31 31 31 32
27 25 26 25 24 17 15 17 17 13 12 12 17 19 25 35 39 39 39 38 39 38 35 35 34 33 32 32 32 32 32 31 31 31 31 31 31 31 31 31 30 30 30 30
25 20 21 19 21 19 17 20 20 17 15 12 13 17 24 34 39 39 40 39 37 36 35 33 32 31 30 30 30 30 31 31 31 31 31 32 32 31 31 31 29 29 29 29
22 22 22 19 21 20 19 20 21 21 19 14 16 23 31 38 39 39 40 40 37 36 34 33 32 31 30 30 30 30 30 31 31 31 31 31 31 30 30 30 31 30 30 30
22 21 24 21 21 18 23 24 24 24 23 24 25 30 32 34 36 39 40 40 38 37 35 33 32 31 31 31 30 29 30 30 30 30 29 29 29 30 30 30 30 31 31 30
23 24 22 19 22 24 24 25 22 21 22 26 24 29 31 32 32 35 40 39 38 37 36 34 32 32 31 30 29 29 29 29 28 28 27 28 30 31 32 31 30 30 29 27
23 23 22 22 20 20 24 26 24 23 19 25 26 28 31 32 29 31 37 39 38 37 36 33 32 31 30 29 29 29 29 28 27 27 27 30 32 33 32 31 30 28 27 26
21 20 19 20 23 26 30 25 25 16 19 23 27 27 33 31 31 32 36 38 38 37 35 33 32 30 30 30 30 29 28 28 28 29 30 31 32 32 30 29 26 25 25 24
21 21 20 22 22 19 27 23 18 23 28 24 26 29 34 33 34 35 35 38 37 36 35 33 32 31 30 30 30 30 28 30 29 30 30 30 30 29 28 25 24 24 25 24
23 26 23 24 25 28 24 24 26 30 27 28 28 31 34 34 33 35 35 36 36 35 34 33 32 31 30 31 30 30 30 29 29 29 29 28 26 23 23 22 24 25 25 25
26 28 28 26 26 28 24 29 26 32 28 30 30 31 35 34 33 35 35 36 35 35 34 33 32 31 30 30 30 31 30 30 29 28 28 26 22 19 21 24 24 25 25 25
27 27 26 25 27 30 30 29 29 31 33 32 32 33 33 34 35 34 36 36 36 34 34 33 32 32 30 31 32 31 31 30 28 27 27 25 24 20 22 25 25 27 26 25
27 25 24 23 27 28 29 32 33 33 32 32 33 34 35 34 35 35 35 36 37 35 35 34 33 32 31 31 32 31 31 29 28 27 26 25 21 21 24 25 23 29 29 31

GFSCGP_sfc_dewp_126.txt.gz
Dewpoint
37 30 25 22 25 25 25 24 24 28 32 33 32 35 38 39 40 40 40 41 43 45 46 46 47 48 51 60 62 61 62 62 64 64 64 64 63 65 62 56 53 54 49 47
24 25 26 23 26 26 25 26 25 31 34 34 32 35 37 39 40 40 41 42 43 46 46 46 47 48 50 55 62 62 61 62 62 61 62 63 64 63 62 60 57 55 52 42
21 22 23 24 24 23 23 25 26 28 34 33 33 32 35 37 39 40 41 45 46 45 46 48 48 49 51 53 59 61 62 62 62 62 62 63 63 62 58 56 55 54 50 42
22 24 21 24 23 23 22 28 28 29 32 28 28 25 33 35 36 38 43 45 45 46 48 49 50 50 51 53 60 61 61 60 60 61 60 60 60 59 56 55 56 54 50 46
17 21 22 23 22 24 23 30 28 30 31 31 28 27 28 36 36 38 43 45 46 48 49 50 51 51 53 55 59 59 60 59 57 58 60 60 59 56 54 54 53 52 52 51
21 25 24 22 23 25 28 32 30 36 33 29 27 28 26 33 36 42 44 45 47 48 49 50 54 54 57 60 59 59 59 57 57 57 59 58 55 53 52 52 52 52 52 52
23 23 26 27 25 27 28 25 21 18 24 25 31 28 30 36 43 44 44 46 47 48 48 51 54 56 57 57 58 59 58 58 56 57 58 57 56 54 53 53 52 51 51 52
19 16 22 20 25 23 26 27 21 3 18 22 32 26 30 40 45 45 45 47 47 48 49 50 53 55 57 58 59 58 57 57 57 57 56 56 56 56 56 55 53 52 52 52
20 20 21 18 24 25 25 25 32 27 29 26 29 30 35 40 43 42 44 46 47 48 49 50 51 54 55 57 57 56 56 56 56 56 55 55 54 54 54 54 54 53 52 52
21 16 19 23 26 31 25 32 27 29 18 18 23 21 22 32 38 42 44 46 46 47 48 48 50 52 52 54 55 54 54 53 54 55 55 54 54 54 55 54 54 54 52 51
19 16 18 20 21 26 27 27 26 26 27 21 21 22 25 34 39 41 42 45 46 47 46 46 48 50 51 50 50 51 51 51 51 52 53 52 53 53 53 53 53 52 53 53
21 19 18 19 22 23 23 19 19 20 21 22 22 23 36 37 40 42 41 43 46 46 45 45 46 46 46 47 45 46 48 49 49 49 47 48 49 50 51 50 50 50 49 48
23 21 18 16 21 23 18 20 15 19 21 20 20 16 36 38 39 42 40 41 45 45 42 40 44 43 41 42 42 39 39 39 38 37 38 39 41 45 48 49 49 49 48 48
31 24 19 17 19 20 16 19 14 14 15 18 21 18 35 38 39 40 40 40 40 44 43 44 43 46 45 41 39 35 33 33 34 33 33 32 32 33 33 35 37 38 37 35
24 21 25 25 26 26 21 18 16 13 12 13 16 21 26 36 39 40 40 39 37 39 39 38 42 37 38 35 33 32 31 31 31 31 31 31 31 31 31 31 31 31 31 33
26 20 21 18 21 19 17 18 18 18 15 13 13 15 19 32 40 40 39 39 39 36 36 35 32 32 32 31 31 31 31 31 31 31 31 31 31 30 30 29 29 29 30 32
24 21 21 17 22 21 18 20 21 20 18 16 13 14 34 38 39 39 39 38 38 35 34 33 31 31 31 30 30 30 31 31 31 31 30 30 30 30 30 30 30 30 30 32
22 22 25 20 21 15 19 24 22 20 22 20 17 25 36 37 39 40 41 39 37 35 33 32 31 31 31 31 31 30 31 31 30 30 30 29 30 30 30 30 30 30 30 30
23 24 22 18 21 20 22 23 22 23 22 26 24 29 35 36 35 38 41 41 38 36 34 33 32 32 31 30 30 30 30 30 30 29 28 29 30 31 31 31 30 29 28 27
23 24 22 22 19 17 20 26 25 22 17 25 26 31 31 32 31 33 39 41 39 37 35 33 32 31 30 30 30 30 30 29 28 28 28 31 32 32 31 30 29 28 27 25
20 20 20 22 21 24 26 26 24 13 17 25 27 29 32 30 31 30 39 40 39 38 36 34 32 30 30 29 29 29 29 28 28 29 31 32 32 32 31 28 26 26 24 24
20 21 20 21 20 19 29 23 18 22 27 26 28 30 33 32 33 33 39 40 39 37 35 33 31 30 29 29 29 29 28 29 30 31 32 32 31 30 28 25 24 24 25 24
20 22 21 23 23 25 26 25 25 28 25 25 27 30 32 34 33 34 35 39 38 37 35 33 31 30 30 30 29 28 29 29 30 31 30 30 29 27 25 24 24 25 25 25
23 26 24 22 22 27 28 25 25 30 26 27 28 31 35 33 33 34 36 38 38 37 35 33 32 30 30 30 29 29 29 30 30 29 28 26 23 23 22 24 25 26 25 25
25 27 27 23 25 29 29 26 27 31 30 29 30 32 34 34 34 35 35 37 37 36 35 33 32 31 30 31 30 30 30 29 28 28 27 24 23 22 23 25 25 25 25 26
28 26 26 24 26 27 27 29 29 31 32 31 31 32 34 35 34 35 36 36 36 36 35 34 33 32 31 31 31 30 31 29 28 27 26 24 22 23 25 25 27 30 30 31

GFSCGP_sfc_dewp_129.txt.gz
Dewpoint
35 32 25 23 25 23 24 23 23 27 31 35 32 32 36 39 39 39 41 44 45 45 46 47 48 48 50 57 63 63 63 65 65 64 64 64 64 64 63 63 60 58 56 56
24 29 30 26 24 24 24 25 24 28 34 34 33 33 37 38 39 40 42 45 45 45 46 47 48 49 50 54 62 62 62 64 64 64 63 64 64 63 61 61 59 58 53 51
22 22 26 21 23 22 21 24 24 25 30 33 32 30 35 36 38 38 42 45 45 46 47 49 49 50 51 54 61 61 61 62 62 63 63 62 61 60 58 58 57 55 54 51
23 24 21 22 20 22 20 26 28 28 29 27 29 26 30 35 36 38 43 44 45 47 49 49 50 51 51 52 61 61 62 61 61 61 61 61 59 56 55 55 54 53 51 51
20 21 22 21 19 23 21 29 29 29 29 30 29 26 26 34 35 39 43 44 46 47 49 50 51 52 53 55 59 59 58 58 59 60 59 59 58 56 55 54 53 54 53 52
22 24 21 16 23 24 31 31 30 34 32 28 28 28 26 33 36 41 44 45 47 48 49 51 55 55 58 59 59 58 57 57 57 59 58 58 56 55 54 53 51 51 52 52
23 22 25 24 22 28 29 27 22 22 21 24 30 28 28 35 41 43 44 46 47 49 49 51 55 56 56 58 58 57 56 56 57 58 57 55 54 53 52 52 51 51 51 51
19 16 22 22 20 18 26 26 20 2 14 19 31 24 27 41 42 43 45 47 48 48 49 51 53 56 57 57 57 57 57 56 56 56 57 56 56 55 54 53 52 52 52 51
20 19 21 16 26 25 26 26 30 26 26 24 28 27 34 42 41 42 44 46 47 48 48 49 51 53 55 56 56 56 56 56 56 56 55 55 56 55 55 53 53 52 52 52
21 16 19 22 26 30 25 32 26 27 16 16 21 21 23 27 37 42 43 45 46 48 48 48 50 51 51 53 54 54 54 54 55 55 55 54 54 54 54 54 53 52 52 52
19 15 17 19 21 25 27 27 25 27 26 19 18 19 25 29 39 41 42 44 46 47 46 47 48 49 49 50 51 52 52 52 52 53 53 53 53 53 53 53 53 53 51 50
19 16 16 15 21 24 26 24 22 20 18 22 21 21 33 36 41 43 41 43 47 46 45 45 46 47 47 47 49 49 49 49 49 50 51 51 52 52 51 51 51 50 50 50
22 19 17 17 19 22 19 19 19 20 20 20 20 16 35 39 40 42 41 42 46 45 42 45 45 43 44 41 40 38 38 39 40 42 43 45 48 49 49 49 48 48 48 48
31 22 17 16 16 21 16 19 16 14 14 15 23 20 34 37 39 41 40 41 45 44 43 45 46 45 43 41 36 34 34 34 35 36 37 37 37 38 39 41 40 38 39 39
24 20 23 23 24 25 23 16 16 13 13 13 13 20 19 36 38 41 41 41 40 44 43 45 45 45 41 35 32 32 32 31 32 32 32 31 31 31 31 31 32 34 36 36
26 21 24 17 21 24 23 21 20 16 14 15 14 16 22 32 39 40 40 40 38 40 41 39 41 36 38 33 32 31 31 31 31 30 30 31 30 30 30 30 31 33 34 36
24 21 19 14 21 20 17 20 19 19 18 15 13 15 29 35 38 40 40 40 39 38 38 36 33 35 34 31 31 30 30 30 30 30 30 30 30 29 29 30 31 32 33 35
24 21 23 17 21 13 16 23 22 20 20 20 17 18 30 32 37 40 41 40 39 38 36 35 32 32 32 31 31 31 31 30 30 30 29 29 30 30 30 30 30 30 31 33
23 25 22 18 18 18 19 23 23 20 19 24 19 20 29 39 39 38 41 40 40 38 37 35 33 33 31 31 31 31 30 30 30 29 29 29 30 30 30 30 30 29 29 29
24 24 22 21 18 16 18 24 25 21 17 23 23 26 35 37 33 35 41 41 39 37 35 33 32 31 31 31 31 30 30 30 29 29 29 30 30 31 30 30 28 27 26 26
20 21 20 22 21 21 24 25 24 14 18 24 26 30 35 34 31 29 40 42 40 37 35 34 32 31 31 31 31 30 30 29 29 29 30 31 31 31 30 29 27 26 25 24
20 21 20 22 20 19 28 24 18 23 25 27 28 32 34 33 32 34 40 41 40 37 36 34 32 31 30 30 30 30 29 30 29 30 32 32 31 31 28 26 25 24 24 25
20 22 21 22 22 25 28 25 25 27 25 25 28 31 32 33 33 35 40 40 40 38 36 34 33 31 30 30 30 29 30 29 30 31 31 31 31 28 26 24 24 25 25 25
22 25 23 21 21 24 27 27 26 28 25 26 29 30 34 33 34 34 37 40 39 38 36 34 32 31 30 30 29 30 29 30 30 30 31 30 29 27 24 24 25 25 25 25
23 24 23 21 23 27 27 28 27 27 29 27 29 31 33 34 34 34 35 39 39 38 36 34 32 31 30 30 29 30 29 30 29 29 29 28 27 26 23 24 26 26 25 27
27 24 23 22 23 23 23 27 29 28 30 29 28 31 33 34 34 34 35 37 39 38 36 34 33 32 31 30 29 30 30 29 29 28 28 26 25 23 24 25 27 30 29 32

GFSCGP_sfc_dewp_132.txt.gz
Dewpoint
34 32 28 26 24 20 22 23 22 24 28 34 34 33 33 38 39 39 41 44 45 45 46 46 48 49 50 53 62 62 61 61 63 62 62 61 61 64 64 64 62 61 62 60
26 27 31 28 25 25 23 23 23 26 31 33 33 33 35 38 38 40 43 44 44 45 47 49 49 50 51 52 60 62 63 63 63 63 62 63 62 64 61 60 58 60 60 59
22 22 29 25 22 21 21 22 22 24 28 32 30 29 33 35 37 39 43 44 44 47 47 48 49 50 51 52 59 61 62 63 64 63 63 62 60 60 58 58 56 55 56 53
23 25 22 22 20 21 19 24 26 27 26 26 29 27 27 34 35 38 42 42 46 47 48 50 51 51 52 53 60 62 61 61 62 63 62 61 60 57 56 55 55 55 55 54
23 21 21 21 19 22 17 29 30 29 27 29 29 26 27 33 33 39 42 44 46 48 49 51 53 54 56 58 59 59 59 60 61 61 61 60 58 57 58 55 53 54 54 54
23 24 20 17 23 23 30 31 30 32 32 28 29 27 27 30 34 40 43 45 47 48 49 53 55 56 56 58 57 57 57 57 59 59 59 58 56 55 54 54 53 53 52 52
23 22 23 23 21 28 28 29 22 16 22 23 29 28 28 32 40 42 44 46 48 49 50 52 54 57 57 57 57 57 56 56 58 57 55 55 56 55 54 53 52 51 51 51
20 17 21 24 13 20 26 24 20 2 10 17 29 26 25 38 42 42 45 47 48 48 50 51 53 56 56 57 56 56 56 56 56 56 55 54 54 54 53 52 52 52 52 52
19 19 21 19 28 25 28 26 28 25 25 22 26 29 27 41 40 41 44 45 46 48 49 50 51 53 55 55 56 56 56 55 55 55 56 56 55 54 53 53 53 53 52 52
21 16 18 22 27 30 25 31 27 26 15 13 17 22 21 25 28 39 42 44 46 48 48 49 50 51 52 53 54 54 55 54 55 55 55 55 55 55 54 53 53 52 52 52
20 16 16 19 19 24 29 29 25 27 25 18 15 14 25 25 34 38 41 43 46 47 47 48 49 49 50 52 52 52 52 52 53 53 53 53 53 53 53 53 52 51 51 51
18 17 15 14 19 26 27 26 25 18 17 23 19 19 32 31 38 41 42 43 47 46 45 46 47 48 47 47 47 48 49 49 50 52 52 52 52 52 51 51 51 51 50 50
22 17 16 17 19 22 20 20 21 20 22 21 20 16 35 36 39 41 41 43 46 45 45 46 46 45 42 40 41 41 41 43 44 47 49 50 50 50 50 49 49 49 48 48
30 20 17 16 16 21 17 19 20 17 14 13 22 22 27 36 39 40 40 42 45 45 45 47 46 43 42 38 37 36 36 38 40 41 42 42 43 44 44 42 41 41 40 39
23 19 21 20 23 21 17 18 18 14 13 12 14 22 22 31 37 39 41 41 44 45 44 46 46 43 38 34 33 33 33 34 35 36 37 35 35 36 37 38 38 37 37 36
25 20 23 18 23 24 23 24 19 16 14 15 14 16 20 25 38 39 41 41 42 44 44 46 45 43 38 34 33 31 32 31 32 32 31 31 31 31 33 34 35 36 36 37
23 23 18 15 20 20 17 20 23 21 17 14 12 15 22 33 37 38 40 41 42 42 44 42 44 40 37 34 32 31 30 30 30 30 30 30 30 30 31 33 34 34 35 35
23 21 21 16 20 14 17 23 22 21 21 18 17 19 25 25 34 38 41 41 41 41 41 40 38 37 35 32 31 31 30 30 30 29 29 29 29 29 30 31 32 32 33 33
23 24 21 18 17 17 18 22 22 20 19 22 19 20 22 37 37 37 41 42 42 41 40 39 36 36 33 31 31 30 30 30 29 29 29 29 29 29 30 30 30 30 31 32
24 24 21 20 18 16 19 23 25 21 18 22 22 22 34 36 27 28 40 42 42 41 38 36 34 33 32 31 31 30 30 30 29 29 29 29 30 30 30 30 29 28 28 30
21 21 19 21 19 20 22 25 24 14 18 22 24 26 36 32 28 28 41 42 41 40 37 35 33 33 32 31 31 30 30 29 29 29 30 30 30 30 30 29 27 26 26 27
20 21 20 22 19 17 26 23 17 22 23 26 27 32 35 33 31 36 41 41 40 38 36 35 33 33 31 31 31 30 30 30 30 29 30 31 31 30 29 27 26 25 24 25
20 23 21 22 23 25 27 25 25 26 25 27 28 32 34 33 31 37 40 41 40 38 36 34 34 32 31 31 31 30 30 30 30 30 31 31 31 30 27 26 24 24 24 25
22 24 23 21 22 24 26 27 27 26 26 26 29 33 35 32 33 35 40 41 40 38 36 34 33 32 31 31 30 31 30 30 29 29 31 31 30 28 25 25 25 25 25 25
23 23 21 21 21 26 25 27 28 27 28 27 29 32 33 34 34 34 38 40 40 39 37 35 34 33 32 31 30 31 30 30 29 29 30 30 30 28 24 25 25 26 25 26
25 22 20 19 22 20 20 24 30 28 27 28 28 30 33 34 34 34 35 39 40 39 37 35 34 33 32 31 30 30 31 30 29 29 30 30 29 26 24 25 26 31 29 33

GFSCGP_sfc_dewp_135.txt.gz
Dewpoint
34 33 31 30 28 20 22 22 22 24 27 34 34 34 35 37 39 40 43 43 43 43 46 49 50 50 51 53 55 61 59 61 63 62 61 61 61 63 65 64 64 63 62 59
29 30 31 30 27 25 24 22 23 26 28 33 32 33 35 38 39 42 43 43 42 45 47 48 49 50 51 53 56 61 61 62 63 63 63 63 62 63 62 62 62 62 62 57
27 26 30 28 24 23 23 23 22 22 28 31 31 31 31 36 38 41 43 43 46 46 48 49 50 52 53 54 59 61 62 62 63 63 63 62 61 60 58 58 57 58 61 60
26 27 24 27 22 23 21 24 24 26 26 25 30 26 30 34 35 40 42 44 47 48 50 51 52 55 56 58 61 61 61 63 64 64 63 61 61 58 58 57 56 57 56 56
25 23 24 24 22 23 22 30 29 29 27 30 30 28 28 33 33 40 42 45 47 49 50 53 53 53 56 58 58 60 60 61 62 63 62 62 60 58 58 57 56 56 56 55
26 26 24 23 24 25 32 31 29 32 33 29 29 28 26 29 35 41 42 46 48 49 51 52 54 55 57 58 57 57 58 59 60 60 61 60 59 57 56 56 56 55 55 55
26 24 25 24 25 29 29 28 28 20 29 25 30 30 29 32 42 43 43 46 48 49 51 53 54 53 56 57 56 56 57 57 57 57 57 57 57 57 56 55 54 53 53 54
21 19 23 25 17 24 27 27 28 18 17 24 29 30 28 37 42 43 45 47 47 49 51 52 55 56 56 57 57 56 57 56 56 56 56 55 56 55 55 54 53 52 52 52
21 22 22 23 28 27 29 28 27 28 27 28 28 28 28 42 42 42 45 45 46 48 49 51 52 54 55 55 55 56 55 55 56 56 55 55 55 54 53 53 53 52 52 52
22 20 20 24 30 33 28 31 29 28 23 16 15 20 21 28 33 42 44 44 46 48 48 50 51 52 53 54 54 55 54 54 55 56 55 55 54 54 54 54 53 52 52 52
22 21 20 22 21 28 32 31 25 28 24 16 11 11 24 26 33 41 43 45 46 47 47 48 49 50 51 52 52 52 53 53 54 54 55 54 54 54 53 53 52 52 52 52
21 19 16 18 20 25 31 29 26 19 20 24 19 18 28 27 36 42 43 45 47 47 46 47 48 48 48 48 48 48 50 50 51 52 52 52 53 53 52 52 51 51 51 51
22 19 17 18 21 24 24 25 24 21 26 23 20 13 31 36 39 43 43 45 46 46 47 47 47 45 44 44 45 44 46 47 49 50 50 50 50 50 51 51 50 50 49 49
31 21 19 17 19 23 21 21 21 20 18 15 21 17 23 35 38 41 42 45 46 46 47 47 46 44 43 43 42 42 42 44 45 46 46 46 46 45 44 44 43 43 42 41
25 21 19 19 22 20 18 21 21 18 16 13 15 22 19 27 36 39 43 45 46 45 46 47 46 42 40 39 39 39 39 41 42 43 42 40 40 41 41 40 40 39 38 37
26 21 22 21 23 24 23 20 21 20 16 15 16 18 23 23 36 39 41 43 45 45 45 47 47 42 38 36 36 38 39 40 41 41 40 40 40 40 39 38 38 37 37 37
24 25 20 17 21 22 19 23 21 20 19 18 15 19 22 30 34 37 40 43 44 46 45 47 47 44 39 36 35 36 36 35 35 35 36 37 38 37 36 36 37 37 37 37
24 23 23 18 20 16 20 25 24 22 23 20 20 21 25 25 31 35 39 42 44 45 46 46 45 44 39 35 34 32 32 32 31 31 31 32 34 34 34 35 35 35 35 35
24 24 21 21 19 19 20 22 24 23 22 24 20 22 24 34 34 33 39 42 43 45 46 46 46 43 38 35 33 32 31 31 30 30 30 31 32 32 33 33 34 34 34 34
25 25 23 20 21 19 21 23 26 24 21 25 24 24 29 34 24 25 37 42 43 43 44 43 42 40 37 34 32 31 31 30 29 29 30 30 30 31 32 32 32 32 33 33
22 22 20 22 21 21 23 26 27 19 22 25 25 25 33 26 27 30 38 41 43 43 42 41 39 39 38 33 31 31 30 30 30 30 30 30 30 30 31 31 30 30 32 31
22 22 21 23 21 18 27 25 22 27 28 28 28 29 31 33 31 38 40 42 42 41 40 39 38 38 35 32 31 31 30 31 31 30 30 30 30 30 30 30 28 28 29 27
21 23 22 23 24 27 28 28 27 29 27 29 29 34 35 33 32 40 41 42 41 40 39 38 38 36 34 32 32 31 32 31 30 30 31 30 31 30 29 28 27 26 27 27
23 25 25 23 24 25 27 29 28 28 29 29 31 33 36 32 34 37 41 41 41 39 38 37 37 35 33 33 33 33 32 31 30 29 30 31 30 30 28 28 27 27 26 26
24 23 23 22 24 27 27 28 29 28 29 29 32 35 35 34 34 36 40 41 41 39 38 37 36 36 35 33 33 33 32 31 30 29 30 30 31 30 27 27 27 27 26 27
24 23 21 20 23 23 23 25 29 29 28 29 31 33 35 35 34 36 39 41 41 40 38 37 36 36 35 33 33 32 33 32 30 29 30 30 31 29 28 27 27 31 30 33

GFSCGP_sfc_dewp_141.txt.gz
Dewpoint
34 31 28 25 28 25 24 23 21 21 18 21 22 22 26 28 32 35 37 37 38 38 43 44 47 47 47 48 51 51 52 51 56 62 61 60 59 60 65 67 66 65 64 63
30 31 27 25 26 27 27 22 22 20 19 21 22 21 23 26 30 35 38 38 39 43 45 50 51 49 48 48 50 52 52 54 58 62 61 61 60 63 65 65 65 64 63 61
27 25 24 25 27 24 23 22 21 18 19 19 22 26 26 31 35 39 38 40 42 47 49 51 52 54 56 56 54 55 56 57 60 62 63 63 63 63 63 63 63 62 61 59
27 28 25 25 23 23 22 22 22 21 19 16 28 16 25 32 35 36 37 39 44 49 49 51 53 54 56 58 60 60 58 59 62 62 63 60 60 60 60 60 62 61 59 59
26 27 27 27 25 25 24 24 22 23 22 21 22 23 21 30 31 32 35 42 46 48 50 52 54 55 56 58 60 62 62 62 63 63 63 63 61 58 58 59 59 59 58 56
26 25 26 25 24 24 27 26 27 27 25 20 21 25 16 27 26 31 37 42 46 48 50 52 54 55 56 57 58 60 59 60 62 63 63 62 60 58 57 57 57 57 57 55
26 25 24 24 24 26 28 24 27 25 30 23 28 26 21 30 33 33 38 43 47 48 50 52 54 54 56 56 57 58 58 58 60 61 62 61 60 59 58 58 56 56 55 55
23 21 24 24 23 23 26 24 29 30 24 29 27 26 24 29 36 40 42 45 47 49 49 52 53 55 56 55 56 56 57 57 57 57 57 58 59 58 57 56 56 56 56 56
20 22 24 23 23 22 22 22 22 24 23 25 26 26 32 34 37 40 43 45 47 48 50 51 52 54 54 55 55 55 55 56 56 57 56 56 56 57 55 56 56 55 54 54
21 20 23 23 23 23 25 24 21 23 30 21 16 18 18 34 34 37 41 43 46 48 49 51 51 53 54 54 55 55 55 55 55 56 56 56 55 55 55 54 54 54 53 53
25 21 21 26 24 21 24 24 24 24 20 18 13 13 18 28 32 32 38 43 46 48 49 50 52 52 53 53 53 54 54 54 54 55 55 55 54 54 53 53 52 53 53 52
26 21 18 22 21 23 22 21 20 18 19 20 15 17 20 23 26 30 38 43 45 47 49 50 51 51 51 51 53 53 53 53 53 54 54 53 53 53 52 53 53 52 51 51
28 23 20 18 20 21 21 22 20 20 19 19 18 17 22 22 23 32 40 43 44 47 49 50 50 50 49 49 50 51 52 52 52 52 52 52 52 52 52 52 52 51 50 50
39 26 22 18 18 20 19 21 22 21 19 17 16 20 24 27 27 34 41 44 44 47 48 50 49 49 49 49 49 50 50 51 51 50 50 49 48 48 49 49 50 50 50 48
30 25 22 20 19 19 20 19 21 21 20 15 15 16 20 26 30 33 40 43 44 46 48 49 48 48 47 47 48 48 49 50 49 48 47 47 46 45 45 43 43 43 42 42
29 25 23 20 20 19 19 20 21 21 20 19 17 17 18 24 29 32 38 42 44 45 48 49 48 48 47 46 46 47 48 48 48 47 46 46 45 45 45 43 42 40 40 40
28 27 24 21 20 19 18 19 20 21 22 20 18 20 21 20 28 31 36 41 43 45 47 49 49 48 48 47 46 47 48 48 46 46 46 45 45 45 44 44 42 42 41 39
32 29 27 23 21 18 21 20 21 22 22 23 22 22 24 22 24 31 35 40 42 45 46 48 48 48 47 48 48 48 48 48 48 47 46 45 44 43 43 42 41 40 38 38
37 33 27 24 22 20 21 22 22 21 21 23 25 24 23 24 25 28 34 38 42 45 46 48 48 47 46 46 47 46 44 42 42 42 42 42 41 41 41 40 38 37 36 35
36 37 30 28 24 23 21 22 25 25 23 24 26 27 24 25 25 27 32 37 41 44 46 47 48 46 44 45 45 42 40 39 39 39 39 38 37 37 37 37 36 35 33 32
32 34 30 29 28 23 23 25 29 21 20 25 25 28 28 28 29 26 31 36 40 44 46 48 49 47 45 45 44 41 38 36 35 34 33 33 33 34 34 35 33 32 31 32
30 30 30 29 27 25 28 27 24 26 33 29 29 31 31 31 30 33 33 39 41 45 47 48 48 47 46 46 44 40 37 36 33 32 31 30 31 30 31 33 32 30 31 30
28 31 29 28 28 29 29 30 31 37 35 31 31 33 32 32 32 35 36 40 42 46 47 48 49 48 47 45 44 41 38 36 33 31 31 29 29 28 30 30 31 30 30 29
26 32 31 30 28 27 29 30 33 33 32 32 32 33 34 34 34 36 37 40 42 45 47 49 49 48 47 45 44 42 38 36 33 31 30 28 27 27 27 29 29 30 29 28
25 28 27 27 29 28 30 30 33 33 33 31 32 33 34 33 36 37 39 40 42 45 48 48 48 48 48 45 44 43 39 36 33 31 30 28 27 27 27 28 29 30 28 31
27 27 26 24 26 26 26 30 32 33 33 31 32 33 35 35 37 39 39 41 42 44 46 47 48 49 47 45 44 43 39 36 34 31 30 30 29 30 29 29 29 35 36 36

GFSCGP_sfc_dewp_144.txt.gz
Dewpoint
36 32 31 30 30 27 26 24 25 25 24 23 23 23 23 25 29 34 35 35 37 39 44 50 52 52 51 49 49 51 51 52 52 60 61 61 62 61 62 65 66 65 65 64
31 31 32 30 28 27 26 25 26 25 25 24 23 22 22 22 28 31 34 37 39 44 48 50 51 53 55 56 51 51 52 53 54 62 60 61 62 63 64 64 64 65 64 64
29 28 30 30 28 26 27 25 23 22 25 23 21 20 21 26 29 39 38 39 44 48 49 50 51 54 55 57 59 56 53 54 55 61 63 63 63 62 62 63 63 63 64 62
29 28 26 28 25 24 26 26 25 24 25 19 24 20 21 31 34 38 38 38 46 48 49 50 53 55 56 58 61 61 60 57 60 61 61 59 60 58 60 60 62 61 61 61
28 28 29 29 26 26 24 31 28 27 24 23 22 21 22 28 34 35 35 41 46 49 50 50 54 56 57 58 60 61 61 62 61 61 62 61 59 58 59 60 60 59 58 59
28 30 30 28 27 28 29 28 29 29 28 23 21 21 23 29 31 33 36 42 47 48 49 51 54 56 57 58 59 59 59 60 61 61 61 59 57 57 57 57 58 58 56 55
28 27 28 27 27 29 30 27 31 26 28 25 30 26 26 31 33 36 38 44 47 48 49 52 55 55 56 56 57 58 58 57 59 61 61 59 58 57 56 56 57 56 55 54
26 25 27 25 24 26 26 27 33 26 28 32 30 27 25 33 36 39 41 46 48 48 49 50 54 55 55 55 56 56 56 56 57 57 58 59 59 58 57 57 56 56 56 54
23 25 27 26 24 24 26 26 27 26 25 25 31 29 34 36 38 40 43 46 47 48 50 50 53 54 54 55 55 55 55 56 56 56 56 56 57 56 56 56 55 55 56 55
25 22 26 25 26 25 24 27 24 26 24 23 22 18 24 32 36 40 42 45 47 49 49 51 53 53 54 55 55 55 55 55 56 56 55 55 55 55 55 55 54 53 53 54
26 25 26 26 24 22 24 25 24 25 25 20 20 19 22 33 35 37 40 44 47 48 48 49 52 53 53 53 54 54 54 54 54 55 54 54 53 53 53 53 53 52 52 52
27 25 24 23 25 23 23 23 24 25 23 22 21 19 17 32 33 36 37 42 47 48 48 49 51 52 52 53 53 53 53 53 54 54 53 53 53 53 52 51 52 52 52 52
30 25 24 23 24 23 23 23 22 23 22 20 22 20 21 26 27 32 39 43 45 48 48 49 50 50 50 51 52 52 52 52 53 52 52 52 52 52 52 52 52 51 50 51
39 28 25 22 22 23 21 22 22 21 20 18 19 21 22 23 25 34 42 43 45 48 48 48 50 49 49 50 51 51 51 51 51 50 49 49 50 50 50 50 50 49 48 47
34 27 27 27 26 23 21 21 21 21 20 19 20 20 21 24 26 35 42 43 44 47 48 48 49 48 48 48 49 49 50 50 49 48 48 47 47 45 45 44 44 44 42 41
35 28 28 26 26 25 22 22 21 21 22 21 20 19 24 26 28 34 41 43 44 46 48 48 48 48 47 47 48 49 48 48 49 47 46 46 45 43 42 41 40 40 40 40
35 30 28 26 25 23 21 21 21 22 22 23 21 21 22 26 29 31 38 42 43 45 47 49 48 48 46 46 48 48 48 47 47 46 46 45 45 44 42 41 41 40 40 39
35 34 32 28 25 21 25 24 22 21 23 23 23 26 27 26 29 31 37 41 43 45 47 49 48 48 47 47 48 48 48 46 46 46 46 45 45 44 43 42 40 39 38 37
39 35 33 29 26 27 28 28 24 21 21 25 24 25 26 27 26 30 35 40 42 45 48 49 49 49 48 47 48 48 49 48 47 46 44 43 42 42 42 40 38 38 36 35
36 37 34 33 28 26 26 28 26 24 21 26 26 26 25 28 24 26 34 39 42 45 48 49 49 47 47 48 48 47 45 45 44 42 42 41 41 40 39 38 36 35 33 32
32 33 29 31 31 30 29 28 30 21 23 27 27 25 27 25 26 29 34 38 42 45 48 49 48 45 45 47 45 42 41 41 41 40 39 38 37 37 36 35 33 32 32 31
29 30 30 30 30 27 31 29 22 26 31 32 31 27 29 28 31 32 34 39 43 46 48 48 47 45 45 45 43 40 38 38 37 36 34 34 34 34 34 33 32 31 32 31
24 32 29 28 26 33 31 30 31 31 31 32 31 34 30 33 30 34 34 39 43 46 47 48 46 45 45 44 42 38 38 34 33 32 32 32 31 32 32 32 31 31 31 31
22 30 33 30 29 30 29 31 31 32 32 32 33 34 34 31 35 33 36 40 44 46 48 48 47 45 45 45 43 39 37 33 32 31 30 30 29 30 30 31 31 32 31 30
31 31 29 29 30 31 31 29 30 31 32 32 32 34 34 35 35 36 38 40 44 46 48 48 48 46 46 45 44 39 36 33 31 30 29 29 29 29 28 30 31 32 30 32
31 33 33 27 29 29 28 31 33 32 33 33 34 34 37 37 37 38 39 41 45 47 48 48 48 47 46 44 44 39 37 33 32 30 29 29 29 29 29 31 33 40 40 41

GFSCGP_sfc_dewp_147.txt.gz
Dewpoint
36 33 31 32 32 30 28 25 25 25 27 24 24 24 25 25 24 25 32 34 40 47 49 51 52 53 54 56 57 51 50 50 53 55 61 61 62 63 63 64 65 62 62 62
33 32 33 33 33 31 29 26 25 27 26 23 20 21 23 23 23 27 34 38 45 48 49 50 52 54 55 56 57 54 51 51 52 57 60 60 62 63 62 63 64 64 64 63
31 31 33 33 32 30 27 26 26 24 25 25 21 23 22 25 33 38 39 46 48 48 49 50 52 54 56 57 58 59 54 52 53 59 61 62 61 61 61 61 61 62 64 64
31 31 30 30 27 28 23 29 29 28 25 20 20 17 19 25 37 37 38 47 48 49 50 50 53 55 57 58 60 60 59 54 56 60 60 59 59 59 59 60 62 61 61 63
29 29 29 28 27 26 25 29 27 29 24 23 23 20 21 28 35 37 38 47 48 49 49 50 54 56 57 59 59 60 60 58 59 60 60 59 57 57 57 59 60 59 58 61
28 30 29 29 29 29 30 27 29 28 26 23 23 22 20 28 34 36 40 47 48 49 49 50 56 56 57 58 58 59 58 59 60 59 59 57 57 57 57 58 59 58 57 56
27 27 29 28 26 28 27 25 23 23 24 23 28 24 22 28 36 36 44 47 48 48 50 53 55 55 55 56 57 57 57 58 58 60 59 57 55 56 56 57 58 56 55 56
25 23 28 27 25 24 26 25 25 20 23 27 30 26 27 34 38 41 46 47 48 48 50 53 54 54 55 55 56 56 56 57 57 58 58 58 58 57 57 57 57 56 55 55
25 26 29 28 25 25 25 24 29 25 26 22 26 27 32 38 39 44 46 48 48 48 49 53 54 54 54 55 55 55 56 56 56 56 57 57 57 57 56 56 56 56 54 54
28 25 25 27 27 27 26 27 23 26 21 21 23 22 22 35 37 44 46 47 47 48 48 52 53 54 54 55 55 55 55 56 56 55 55 55 55 55 55 54 53 54 55 54
29 27 25 25 24 23 24 23 25 25 28 23 19 21 20 34 38 40 45 47 48 48 49 52 53 53 54 54 54 54 54 54 54 54 54 53 53 53 53 53 53 53 53 54
32 28 25 25 25 25 23 22 22 23 20 22 22 20 20 32 38 40 43 46 48 48 49 52 52 52 53 53 53 53 54 53 53 53 53 53 52 52 52 52 52 52 52 52
36 31 24 24 24 24 23 23 23 24 24 21 20 20 27 33 37 39 42 46 47 48 48 51 51 51 52 52 52 52 52 52 52 52 52 52 52 52 52 52 52 52 51 51
39 32 28 22 23 23 21 23 23 23 21 21 21 21 23 28 34 36 42 47 48 48 47 49 50 50 51 51 51 51 51 52 51 50 50 50 51 50 50 50 50 50 49 49
38 32 30 29 25 23 22 22 23 22 22 21 21 21 22 23 30 36 42 47 47 47 47 48 49 49 50 50 51 51 50 50 49 48 48 47 47 47 46 46 43 42 42 42
38 33 32 29 29 27 26 27 24 23 22 21 21 21 22 24 31 42 42 46 47 47 47 47 47 49 49 49 50 50 49 48 48 47 46 45 43 42 41 41 40 40 40 40
33 35 33 29 31 27 25 26 26 24 22 22 21 22 25 27 28 41 42 43 47 48 47 47 47 47 48 49 49 48 49 48 47 46 45 44 43 42 41 41 40 40 39 40
31 31 31 31 31 26 27 26 25 24 24 23 23 26 26 29 28 38 43 43 45 47 48 48 48 47 48 49 49 48 47 47 47 46 46 45 43 42 41 41 39 38 38 38
33 30 28 29 29 29 28 27 28 24 24 26 24 25 27 29 31 30 42 44 45 47 49 49 49 47 47 48 48 47 47 47 47 46 45 45 43 42 40 38 37 37 37 37
27 31 29 28 26 25 25 29 30 30 25 26 25 26 25 27 28 30 38 43 45 48 49 49 48 47 47 48 49 47 47 47 46 46 44 43 42 41 39 38 36 35 35 35
26 28 25 26 24 27 30 28 31 25 25 27 26 25 27 26 25 27 38 43 46 48 49 49 49 47 47 48 48 48 47 47 46 43 42 42 41 39 37 35 33 32 32 32
21 25 27 25 24 21 28 28 28 28 27 29 29 30 29 28 30 33 38 42 47 48 49 49 48 48 48 48 48 45 46 44 42 41 40 39 37 36 34 32 32 31 31 31
17 26 31 31 26 27 28 22 24 32 29 32 31 33 34 31 32 35 38 43 47 48 49 49 46 47 47 47 45 42 42 40 39 37 36 36 35 33 32 31 31 31 31 31
25 25 24 28 29 33 30 28 30 32 29 31 31 33 35 32 31 35 40 43 47 48 48 47 45 46 45 44 41 41 38 38 36 34 33 33 33 32 31 31 31 31 31 31
26 30 31 30 29 28 29 31 28 27 28 30 31 32 34 35 32 35 40 43 46 48 48 46 45 45 45 43 40 38 35 35 33 31 31 31 33 32 31 31 31 31 30 32
28 27 26 24 31 30 28 30 33 33 33 32 31 31 34 37 35 37 41 44 46 48 48 45 45 45 44 43 39 36 34 33 31 30 30 30 31 30 31 32 35 38 36 40

GFSCGP_sfc_dewp_150.txt.gz
Dewpoint
37 32 31 32 31 30 29 27 25 26 27 26 26 28 27 29 28 26 32 33 46 48 50 51 52 54 55 55 56 57 51 50 53 53 57 59 60 62 64 64 64 63 63 60
34 32 33 34 34 33 31 29 28 28 28 24 23 23 25 24 24 24 24 37 46 48 48 50 52 53 55 55 57 58 52 50 51 54 59 60 60 61 61 63 64 63 61 62
31 32 34 33 33 32 31 28 26 25 27 26 22 22 22 24 32 36 36 42 47 48 49 50 52 53 55 55 57 58 57 52 52 55 59 59 60 61 60 61 61 63 62 62
32 33 32 32 32 32 29 30 29 28 24 21 20 18 20 19 35 40 45 47 48 49 49 51 52 53 54 56 59 59 58 57 54 56 58 58 58 58 58 58 61 60 62 63
30 31 32 31 30 30 29 29 27 26 23 25 22 20 20 27 35 37 44 46 47 48 49 50 52 55 57 58 59 59 58 58 57 58 58 57 56 56 56 58 60 59 57 62
30 32 31 30 30 30 30 27 29 29 26 22 23 21 19 22 31 36 43 47 48 48 49 52 55 55 55 57 58 58 57 57 59 58 58 56 56 55 56 57 59 58 57 58
29 29 31 30 27 30 28 25 23 21 23 21 25 22 22 24 33 37 43 47 48 48 49 52 53 54 55 56 56 57 58 58 58 58 57 56 56 57 56 57 58 57 56 56
26 25 27 29 27 24 26 25 24 16 22 24 28 26 29 34 35 39 45 48 48 48 51 53 53 54 55 55 56 56 56 57 58 58 58 58 57 56 55 55 57 57 56 56
27 26 29 28 27 26 25 24 27 24 26 21 25 24 27 39 43 45 46 47 47 48 50 53 54 54 53 55 55 55 56 56 56 57 57 57 56 57 56 55 56 56 55 55
27 25 27 29 28 27 25 27 24 26 20 19 20 22 20 35 41 45 46 47 47 48 50 52 53 54 54 55 55 55 56 56 55 56 56 55 55 55 55 54 54 54 54 54
30 26 25 25 25 25 25 25 25 25 26 21 19 20 24 32 39 44 46 47 47 47 49 52 53 54 54 54 54 54 55 54 54 54 54 54 54 54 54 53 53 54 54 54
35 34 26 26 25 27 25 24 25 23 20 24 21 21 23 31 37 43 46 47 48 48 49 51 52 53 53 53 54 54 53 53 53 53 53 52 52 52 52 52 53 53 53 53
36 32 26 24 26 27 23 23 23 24 25 20 19 19 30 35 38 43 45 47 48 48 50 51 52 52 52 53 53 53 53 52 52 52 52 52 52 52 52 52 52 52 52 52
37 36 30 26 27 30 22 23 23 22 21 21 22 21 26 34 38 40 44 47 47 48 50 50 51 51 52 52 52 52 52 52 52 51 51 51 50 51 51 51 49 49 50 50
34 29 33 34 33 32 30 26 23 22 22 20 21 22 23 27 35 38 43 47 47 47 48 49 49 50 51 51 51 51 51 50 50 49 49 49 49 47 45 44 43 44 44 43
37 28 29 28 30 31 31 30 24 23 22 22 22 22 24 24 31 38 43 46 47 47 47 48 48 49 51 51 51 50 49 49 48 48 46 45 44 43 42 42 41 41 41 41
29 30 26 17 26 31 30 31 27 25 24 23 22 23 24 25 29 36 43 46 47 47 47 47 48 49 50 50 50 50 48 48 47 46 45 44 43 42 41 41 41 40 40 40
30 28 27 22 22 16 28 34 29 28 28 28 25 25 27 26 26 33 42 46 47 47 47 47 47 48 49 50 50 50 48 47 46 45 44 43 43 42 41 40 39 39 39 39
30 27 17 17 17 15 23 27 30 26 26 29 27 26 26 29 30 32 42 45 47 48 47 47 47 48 48 50 49 49 48 47 46 45 45 43 42 41 39 38 37 37 38 38
30 28 24 17 15 8 24 30 30 31 26 29 28 27 27 30 27 28 40 44 47 48 48 48 48 48 48 49 48 47 47 47 46 46 45 44 42 39 38 37 37 36 36 36
23 27 23 23 18 20 28 29 27 25 25 30 29 28 28 28 26 27 37 44 46 48 48 48 48 47 48 49 48 47 47 47 47 46 44 42 41 39 37 36 35 35 35 34
17 17 20 24 22 18 26 26 20 28 31 29 29 31 30 32 31 32 38 44 47 49 49 49 47 47 48 48 47 47 47 48 46 44 43 41 39 38 36 34 32 33 33 32
17 21 19 24 24 29 32 26 29 33 31 32 30 31 32 32 33 33 40 44 47 49 49 48 48 47 47 48 48 47 47 45 44 42 41 39 37 35 33 32 31 32 32 31
24 26 24 24 24 25 24 25 28 31 32 33 31 31 29 29 34 34 40 45 47 49 48 48 48 47 47 48 48 48 45 44 42 40 39 37 35 33 31 31 31 32 31 31
20 27 26 26 26 32 33 32 30 29 30 32 33 35 36 33 33 35 40 45 48 48 49 48 48 48 47 48 47 45 43 42 40 38 37 36 35 32 31 31 32 32 31 32
23 22 23 22 22 25 25 27 32 34 35 37 36 36 37 34 34 37 42 46 48 48 48 47 48 47 47 46 44 41 41 40 38 36 35 35 35 32 31 31 32 36 36 38